Regional Weather Roundup
Issued by NWS Cleveland, OH

Home | Current Version | Previous Version | Graphics & Text | Print | Product List | Glossary On
Versions: 1 2 3 4 5 6 7 8 9 10 11 12 13 14 15 16 17 18 19 20 21 22 23 24 25 26 27 28 29 30 31 32 33 34 35 36 37 38 39 40 41 42 43 44 45 46 47 48 49 50
000
ASUS41 KCLE 062100
RWRCLE
OHIO REGIONAL WEATHER ROUNDUP
NATIONAL WEATHER SERVICE WILMINGTON, OH
400 PM EST FRI MAR 06 2015

NOTE: "FAIR" INDICATES FEW OR NO CLOUDS BELOW 12,000 FEET WITH NO
SIGNIFICANT WEATHER AND/OR OBSTRUCTIONS TO VISIBILITY.

OHZ001>008-015>018-024>027-034-035-043-044-062200-
   NORTHWEST OHIO

CITY           SKY/WX    TMP DP  RH WIND       PRES   REMARKS
DEFIANCE       SUNNY     23  10  57 SW17G23   30.35F WCI   9
FINDLAY        SUNNY     24  12  60 SW18      30.35F WCI  10
TOLEDO EXPRESS SUNNY     22   8  55 SW15G23   30.34F WCI   9
TOLEDO EXEC    SUNNY     22  10  60 SW18      30.36F WCI   7
LIMA           SUNNY     25  10  53 S16G23    30.34F WCI  12
$$

OHZ009>014-019>023-028>033-038-089-062200-
   NORTHEAST OHIO

CITY           SKY/WX    TMP DP  RH WIND       PRES   REMARKS
CLE-HOPKINS    PTSUNNY   23   7  50 S13       30.39F WCI  11
CLE-LAKEFRONT  PTSUNNY   25   8  48 S18       30.36F WCI  11
CUY CO. ARPT   CLOUDY    25   9  50 SW16      30.36F WCI  12
LORAIN-ELYRIA  SUNNY     22   7  52 SW16      30.37F WCI   8
ASHTABULA      MOSUNNY   23   4  44 S10       30.35F WCI  12
AKRON-CANTON   PTSUNNY   22   7  52 SW15      30.35F WCI   9
WOOSTER        NOT AVBL
MANSFIELD      SUNNY     22   8  55 SW13      30.34F WCI  10
YOUNGSTOWN     CLOUDY    22   4  46 S10       30.34F WCI  11
$$

OHZ042-051>053-060>062-070>072-077>081-062200-
  SOUTHWEST OHIO

CITY           SKY/WX    TMP DP  RH WIND       PRES   REMARKS
CINC-COVINGTON MOSUNNY   26  12  55 S14       30.41F WCI  14
CINC-LUNKEN    SUNNY     26  12  55 S10       30.45F WCI  16
HAMILTON       SUNNY     30  11  45 SW7       30.43F WCI  23
DAYTON         NOT AVBL
WRIGHT-PAT AFB NOT AVBL
DAYTON GENERAL SUNNY     26   9  48 SW12      30.39F WCI  16
WILMINGTON     SUNNY     22   8  55 S10       30.40F WCI  11
$$

OHZ036-037-039>041-045>050-054>059-063>069-073>076-082>088-062200-
  CENTRAL AND SOUTHEAST OHIO

CITY           SKY/WX    TMP DP  RH WIND       PRES   REMARKS
COLUMBUS       PTSUNNY   22   7  52 SW10      30.42F WCI  11
OSU AIRPORT    SUNNY     23   7  50 SW12      30.40F WCI  12
BOLTON FIELD   SUNNY     23  10  58 SW12      30.42F WCI  12
RICKENBACK AFB NOT AVBL
NEWARK         SUNNY     22   4  46 SW10      30.41F WCI  11
MARION         MOSUNNY   21   9  59 S16       30.38F WCI   7
LANCASTER      SUNNY     23   7  50 SW9       30.42F WCI  13
ZANESVILLE     SUNNY     24   6  46 S8        30.40F WCI  15
NEW PHILLY     MOSUNNY   25   4  40 W9        30.39F WCI  15
$$



USA.gov is the U.S. government's official web portal to all federal, state and local government web resources and services.